User: anonymous   Login
Location: Howard City Library
(37.4684°N, 96.2639°W)
Time: 07:30:37
(UTC+00:00)
Language:

STARLINK-1021 - Orbit

View from above orbital plane
View from above orbital plane
View from above satellite
View from above satellite

Ground track
Ground track

The orbit data is extracted from the following two-line orbital elements,

1 44726C 19074P   20157.08867285  .00033125  00000-0  22693-2 0  1577
2 44726  52.9996 270.0522 0001293 102.7494 186.5298 15.05540330    11
Epoch (UTC): 05 June 2020 02:07:41
Eccentricity: 0.0001293
inclination: 52.9996°
perigee height: 549 km
apogee height: 551 km
right ascension of ascending node: 270.0522°
argument of perigee: 102.7494°
revolutions per day: 15.05540330
mean anomaly at epoch: 186.5298°
orbit number at epoch: 1

The dashed part of the orbit path shows where the satellite is in the earth's shadow,  

DLR